{"data":{"norad_id":67898,"epoch":"2026-05-25T01:36:13.328352Z","epoch_age_seconds":62550,"freshness":"FRESH","line1":"1 67898U 26035V   26145.06682093  .00014779  00000+0  45907-3 0  9991","line2":"2 67898  97.2841  78.6050 0001578  96.1978 263.9444 15.33453583 15691","mean_motion":15.33453583,"eccentricity":0.0001578,"inclination_deg":97.2841,"raan_deg":78.605,"arg_perigee_deg":96.1978,"mean_anomaly_deg":263.9444,"bstar":0.00045907,"rev_number":1569,"period_min":93.905679047867,"perigee_km":464.43770892608,"apogee_km":466.59756632971,"semimajor_km":6843.6546376279,"source":"CELESTRAK","updated_at":"2026-05-25T13:38:21.735814Z"}}